Temperature
19 19 19 19 21 23 24 24 25 25 25 24 23 24 24 23 23 21 18 18 18 18 18 18 18 18 18 18 18 18 18 18 18 18 18 18 18 18 18 18 18 18 18 18 18 18 18 18 18
19 19 19 20 23 24 24 24 24 24 24 23 23 23 23 22 21 19 18 18 18 18 17 17 18 18 18 18 18 17 18 18 18 18 18 18 18 18 18 18 18 18 18 18 18 18 18 18 18
19 19 20 22 23 24 24 24 24 24 23 23 23 23 23 21 20 19 18 18 18 17 17 17 18 18 18 18 17 17 17 17 17 17 17 17 17 17 18 18 18 18 18 18 18 18 18 18 18
19 19 21 23 24 24 24 24 24 24 23 23 23 23 21 19 19 18 18 18 17 17 17 17 18 17 17 17 17 17 17 17 17 17 17 17 17 17 17 17 17 17 17 17 18 18 18 18 18
19 21 23 23 24 24 25 24 24 25 24 23 23 23 21 18 18 18 18 18 18 17 17 17 17 17 17 17 17 17 17 17 17 17 17 17 17 17 17 17 17 17 17 17 17 17 18 18 18
21 23 23 24 24 24 24 24 24 25 24 23 23 23 21 18 18 18 18 18 17 17 17 17 17 17 17 17 17 17 17 17 17 17 17 17 17 17 17 17 17 17 17 17 17 17 17 17 17
22 23 24 24 24 24 24 24 24 25 24 23 23 23 21 19 18 18 18 18 17 17 17 17 17 16 16 16 16 16 16 16 16 16 16 16 16 16 17 17 17 17 17 17 17 17 17 17 17
21 24 24 24 24 24 24 24 24 24 24 22 22 23 22 19 18 18 18 18 17 17 17 17 16 16 16 16 16 16 16 16 16 16 16 16 16 16 16 16 16 16 16 17 17 17 17 17 17
21 23 24 24 24 24 24 24 23 23 23 22 22 22 21 19 18 18 18 18 17 17 17 16 16 16 15 15 15 15 15 15 15 15 15 15 15 15 15 15 16 16 16 16 16 17 17 17 17
22 23 24 24 25 25 24 24 24 23 23 23 21 20 19 19 19 19 19 19 18 17 17 16 16 16 15 15 15 14 14 14 14 14 14 14 15 15 15 15 16 16 16 16 16 16 17 17 17
23 24 24 24 23 24 24 24 24 24 24 24 23 21 20 19 19 19 19 19 18 17 17 16 16 16 15 15 15 14 14 14 14 14 14 14 14 14 15 15 15 15 15 16 16 16 16 16 16
24 24 24 24 23 23 24 24 24 24 24 23 22 21 20 20 20 19 19 19 18 17 17 16 16 16 15 15 14 14 14 14 14 14 14 14 14 14 14 14 14 15 15 15 15 16 16 16 16
24 24 23 23 22 23 23 23 24 24 23 22 22 21 21 20 20 20 19 19 18 17 17 16 15 15 15 14 14 14 14 14 14 13 13 14 14 14 14 14 14 14 15 15 15 15 16 16 16
24 23 23 23 23 23 23 24 23 24 22 22 21 21 21 20 20 20 19 18 18 17 17 16 15 15 14 14 14 14 14 14 13 13 13 13 13 14 14 14 14 14 14 14 15 15 15 15 16
22 24 24 24 23 23 23 24 25 24 22 22 22 21 21 20 20 19 19 18 18 17 17 16 15 15 14 14 14 14 13 13 13 13 13 13 13 13 13 14 14 14 14 14 14 15 15 15 15
24 24 24 24 24 23 23 24 25 23 22 23 22 22 21 20 20 19 19 18 18 17 17 16 15 15 14 14 13 13 13 13 13 13 13 13 13 13 13 13 13 13 14 14 14 14 15 15 15
24 24 24 24 24 24 24 25 25 23 23 23 22 22 21 21 20 19 19 18 18 17 16 16 15 14 14 14 13 13 13 13 13 12 12 12 12 13 13 13 13 13 13 14 14 14 14 15 15
24 24 24 25 24 24 24 25 25 23 23 23 23 22 22 21 21 20 19 18 17 17 16 15 15 14 14 14 13 13 13 13 12 12 12 12 12 12 12 13 13 13 13 13 13 14 14 14 14
25 24 25 25 24 24 24 25 26 25 23 23 23 23 22 22 21 19 18 18 17 17 16 15 15 14 14 13 13 13 13 12 12 12 12 12 12 12 12 12 12 13 13 13 13 13 14 14 14
24 24 24 25 24 24 25 25 26 25 24 24 24 24 23 22 21 19 18 18 17 17 16 15 15 14 13 13 13 12 12 12 12 12 12 12 12 12 12 12 12 12 12 13 13 13 13 14 14
24 24 24 24 24 24 24 25 26 25 24 23 22 23 23 22 21 20 18 18 17 16 16 15 15 14 13 13 13 12 12 12 12 12 12 11 12 12 12 12 12 12 12 12 12 13 13 13 14
24 24 24 23 24 25 24 24 26 26 24 24 23 22 22 21 21 20 19 18 17 16 16 15 15 14 13 13 13 13 12 13 12 12 12 12 11 12 12 12 12 12 12 12 12 12 12 13 13
24 23 23 23 24 24 25 24 26 25 25 25 24 23 22 21 20 20 19 18 17 16 16 15 15 14 13 13 13 12 12 12 12 12 12 12 12 11 11 12 12 12 12 12 12 12 12 12 13
23 23 23 24 24 24 25 24 25 26 26 25 25 23 22 21 20 19 18 18 17 16 16 15 15 14 14 13 13 12 12 12 12 12 12 12 12 12 11 11 11 12 12 12 12 12 12 12 12
23 24 24 24 24 24 24 23 25 26 25 24 24 23 22 21 20 19 18 18 17 17 16 15 15 14 14 13 13 13 12 12 12 12 12 12 12 12 11 11 11 11 11 11 11 12 12 12 12
24 25 24 23 23 24 24 24 26 25 23 22 22 22 22 21 20 19 19 18 18 17 16 16 15 14 14 14 13 13 13 12 12 12 12 12 12 12 11 11 11 11 11 11 11 11 12 12 12
24 24 25 24 24 23 25 25 26 24 24 23 22 22 21 21 20 19 19 18 18 17 16 16 15 15 14 14 13 13 13 13 12 12 12 12 12 12 12 11 11 11 11 11 11 11 11 12 12
24 25 24 24 23 23 24 24 25 25 25 24 23 23 22 21 20 19 19 18 18 17 16 16 15 15 14 14 14 13 13 13 13 12 12 12 12 12 12 12 12 12 12 11 11 11 12 12 12
23 24 24 24 24 23 23 24 26 25 25 24 24 23 22 21 20 19 19 18 18 17 16 16 16 15 15 14 14 14 13 13 13 13 13 12 12 12 12 12 12 12 12 12 12 12 11 11 12
24 24 24 24 24 23 23 24 26 24 24 23 24 23 22 21 20 19 19 18 18 17 17 16 16 15 15 15 14 14 14 14 13 13 13 13 12 12 12 12 12 12 12 12 12 12 11 11 12
Wind_Speed
8 7 3 2 3 2 1 2 2 2 3 4 4 3 3 5 4 4 4 5 5 5 6 6 4 3 3 3 3 2 1 1 2 2 3 3 4 4 5 5 5 4 3 3 2 1 1 1 0
7 5 3 2 2 2 3 3 3 4 4 4 3 3 3 5 5 5 5 6 6 6 6 6 7 5 5 4 3 2 2 2 3 3 4 4 5 6 6 7 6 5 5 4 4 3 3 2 1
7 3 2 2 2 1 3 4 5 5 4 1 2 3 3 4 4 4 6 6 6 7 7 8 7 6 5 4 3 2 2 3 3 4 4 5 6 7 8 8 7 7 6 6 5 5 4 4 3
5 3 2 3 3 1 2 4 5 5 3 2 2 4 4 4 3 6 7 7 7 7 7 8 7 6 5 4 3 2 1 2 3 4 5 6 7 8 8 8 8 8 7 7 6 6 6 5 4
3 3 3 3 2 2 2 3 3 2 2 2 2 4 5 5 6 8 7 7 7 7 7 8 8 7 6 5 4 3 3 3 3 3 4 5 6 7 8 8 7 7 8 8 8 7 7 6 6
4 3 3 3 2 2 3 4 4 2 3 3 3 4 5 6 7 7 7 6 6 6 6 6 7 7 7 6 5 5 4 4 4 3 4 4 5 5 5 6 6 7 7 7 8 7 7 7 7
4 3 3 2 2 3 3 4 4 2 3 3 2 4 6 7 7 7 7 6 5 5 4 4 5 5 5 5 6 6 6 5 5 5 4 4 5 5 4 4 5 7 8 8 7 7 7 9 8
3 3 3 2 3 3 4 4 2 2 3 4 2 2 5 9 9 8 6 5 5 4 3 4 4 5 5 4 6 6 6 6 5 5 5 5 5 4 4 6 5 7 7 8 8 8 9 8 8
3 4 3 2 2 2 5 5 4 2 4 4 2 2 6 12 11 9 7 5 4 3 2 3 4 5 5 5 5 4 3 3 4 3 2 5 5 5 4 2 3 5 6 8 8 8 8 7 8
5 4 2 1 1 2 5 4 5 5 5 4 5 6 9 12 11 9 7 5 3 2 2 2 3 4 5 5 5 4 5 4 5 5 5 5 4 5 6 1 4 5 5 7 7 7 8 8 7
5 4 2 2 2 2 4 5 5 5 4 4 7 11 12 11 10 8 5 3 2 2 1 1 3 4 5 4 5 5 5 4 4 5 5 5 5 4 4 4 3 4 5 5 5 7 7 6 6
5 4 3 2 3 4 4 4 5 7 2 3 7 12 13 12 10 8 5 4 3 1 1 1 3 4 5 5 5 5 4 4 5 5 6 5 4 5 4 4 4 4 3 3 4 4 6 7 7
8 4 4 3 4 5 4 5 5 6 4 6 9 12 12 11 9 7 5 4 4 2 1 1 2 4 5 5 5 5 4 5 5 5 5 5 5 5 5 4 4 4 4 3 4 5 5 6 6
5 5 3 3 4 4 5 5 5 5 7 9 11 12 12 10 9 7 7 6 4 3 1 0 1 3 4 5 5 5 5 4 5 5 6 6 5 5 5 5 4 4 4 4 4 5 5 5 5
4 5 5 5 6 4 5 7 7 5 9 11 12 12 11 10 9 8 7 6 4 3 2 1 1 2 4 5 5 4 5 5 5 5 6 6 6 6 5 5 5 4 5 5 4 4 4 4 5
5 6 6 5 6 5 6 7 3 6 10 11 11 11 11 10 10 8 7 6 4 3 2 1 1 2 3 4 4 4 4 5 4 5 5 6 6 6 5 5 5 5 5 4 4 4 4 4 5
7 7 6 4 6 6 8 7 3 6 10 10 11 11 11 10 10 8 8 6 5 4 3 2 0 2 2 3 3 4 4 4 4 4 5 6 7 7 6 5 5 5 4 4 4 3 4 4 4
8 8 7 5 4 7 9 10 5 7 9 10 11 11 11 10 9 8 7 7 6 5 3 2 1 1 2 2 3 3 3 3 4 4 5 6 6 7 6 5 5 5 4 4 3 3 3 4 4
5 6 7 4 2 5 10 12 9 8 10 11 11 12 11 10 8 7 8 8 7 6 4 3 1 0 1 2 3 3 3 4 4 4 5 6 6 6 6 6 5 5 4 4 4 3 3 3 3
7 7 7 4 2 6 9 12 10 9 11 11 12 12 12 10 9 9 9 9 8 6 4 3 2 0 1 2 3 3 4 4 4 4 4 6 6 6 6 6 5 4 4 4 3 3 3 2 2
9 9 7 6 3 5 7 9 7 6 7 9 10 11 11 10 10 10 10 10 8 7 5 4 2 1 0 1 2 2 2 3 2 3 4 5 6 5 5 6 6 5 4 3 3 3 3 3 2
9 5 6 7 7 5 4 8 6 3 6 9 10 11 11 11 10 10 10 10 9 7 6 4 3 2 1 1 2 3 4 4 5 5 5 5 5 5 5 5 5 4 4 4 3 3 3 3 3
4 0 3 6 8 9 7 8 5 2 6 7 9 11 11 11 11 11 11 10 8 7 6 5 4 3 2 2 2 3 3 4 4 4 5 5 4 5 5 5 5 4 4 4 4 3 3 3 3
5 4 3 5 6 8 5 6 6 3 3 3 5 9 11 11 11 11 10 9 8 8 7 5 5 3 3 3 3 3 4 4 5 5 5 5 4 4 5 5 4 4 4 4 4 3 3 3 3
7 6 4 5 5 4 1 6 6 2 2 3 3 5 9 11 12 11 11 11 10 9 8 7 6 5 4 4 4 3 4 5 5 5 4 5 5 4 5 5 4 4 4 4 4 3 3 3 3
8 8 5 4 5 5 3 6 4 1 3 4 4 4 8 11 11 11 11 11 10 10 9 8 7 5 4 4 4 3 3 4 4 4 4 4 4 4 5 5 5 4 4 4 3 3 3 3 3
5 6 4 6 6 7 5 5 6 3 5 5 5 6 9 10 11 11 11 10 10 10 9 9 7 6 5 5 4 4 4 4 4 4 4 4 4 4 5 5 4 4 4 4 4 3 3 3 3
2 3 4 5 5 7 6 7 4 2 4 6 7 8 9 9 10 11 10 10 10 9 9 8 8 7 6 5 4 3 4 4 4 4 4 4 4 4 5 5 4 3 3 3 3 4 3 4 3
6 5 5 5 6 6 7 5 2 4 3 6 8 8 8 10 10 10 10 10 9 9 9 9 8 7 6 5 5 4 4 4 4 4 4 4 4 4 4 4 4 4 4 3 3 4 4 4 4
6 7 8 8 7 7 8 7 0 4 5 6 8 8 8 9 10 10 10 10 10 10 10 9 8 8 7 6 5 5 4 4 4 4 4 4 4 4 4 4 4 4 4 4 4 4 4 4 4
Wind_Direction
167 163 179 218 228 212 124 90 55 64 66 61 50 45 36 30 10 45 72 79 97 114 122 126 108 101 98 91 77 60 20 304 278 273 262 243 241 244 249 246 239 232 229 233 237 236 234 212 79
161 162 207 232 237 187 125 105 88 65 83 98 72 57 62 66 52 75 85 82 92 98 105 99 91 84 78 70 58 28 3 333 308 293 285 278 267 260 258 257 251 247 242 244 249 247 244 239 241
159 193 236 227 216 182 114 111 107 101 98 76 79 60 52 67 68 76 88 100 99 97 96 88 82 78 74 74 66 31 355 342 325 310 301 297 289 278 270 265 261 259 255 253 256 258 255 250 244
173 194 225 236 203 111 105 124 129 130 115 81 106 97 83 62 66 92 106 109 104 99 93 87 75 72 70 72 69 36 337 292 297 298 290 288 285 283 276 269 266 264 261 261 258 256 257 255 252
202 226 221 212 187 134 150 146 160 160 112 100 100 96 98 90 97 109 112 109 105 99 91 84 65 55 48 47 39 24 3 326 295 282 285 289 283 279 276 270 267 268 264 261 260 257 255 257 260
209 233 236 214 168 157 171 179 184 172 122 124 119 108 104 119 124 118 116 111 101 92 85 81 78 61 48 40 33 22 4 345 329 311 296 288 277 271 270 268 269 267 264 262 265 264 259 258 259
240 239 250 227 194 185 165 176 190 175 143 124 126 116 126 142 137 134 126 115 103 93 81 65 56 61 66 58 38 24 15 6 354 339 325 306 283 271 263 262 265 261 254 255 257 259 259 260 254
250 251 234 216 208 182 157 169 165 183 121 118 159 137 139 152 150 146 138 131 119 105 86 62 44 31 20 27 47 19 12 7 357 347 342 330 297 266 249 247 243 259 258 252 246 245 241 250 252
224 242 242 226 217 155 167 175 154 148 143 145 140 81 116 142 154 159 158 155 143 120 89 58 37 27 14 359 20 351 352 358 313 309 341 296 292 295 263 276 268 259 257 252 241 241 233 235 239
211 239 239 232 225 157 177 194 172 175 175 169 150 132 139 155 167 173 174 168 158 133 99 53 29 20 8 359 358 342 336 342 329 330 328 315 308 297 291 237 256 261 257 245 232 231 224 225 231
212 235 215 204 203 191 188 192 189 201 205 192 171 159 161 170 177 183 182 174 151 135 104 40 11 11 0 357 351 348 339 337 329 333 321 310 303 291 284 283 256 262 254 246 224 224 221 222 227
214 222 225 200 182 197 201 194 202 221 239 145 159 159 167 178 184 190 191 178 174 173 105 29 351 354 358 356 352 341 344 342 340 338 329 320 312 307 310 293 296 287 276 268 257 245 226 224 226
219 211 204 212 203 213 218 223 231 222 199 163 157 166 175 183 187 190 193 189 190 185 193 333 333 348 352 355 340 342 348 341 341 339 331 330 319 315 312 299 296 288 287 276 261 253 239 230 229
209 210 207 209 209 211 225 230 227 219 179 172 172 179 184 189 195 193 197 203 203 201 207 216 312 346 343 342 342 348 342 337 331 337 335 332 324 319 315 306 304 300 293 290 278 261 251 243 236
186 211 221 213 211 209 225 238 225 198 180 183 185 187 189 196 202 208 205 207 207 202 209 211 296 334 341 342 346 341 338 337 336 341 334 334 331 322 316 312 309 308 299 288 279 270 259 249 240
197 216 223 199 201 199 224 255 177 177 190 195 194 191 197 204 211 212 207 208 199 197 197 177 283 328 345 347 340 340 343 342 341 341 337 337 335 330 323 315 311 311 302 291 279 269 261 253 248
205 221 226 207 200 200 224 259 158 177 198 205 202 201 204 209 213 207 205 204 195 192 188 178 170 335 349 350 341 342 342 342 339 341 345 340 338 333 326 321 316 312 302 294 286 277 271 263 257
210 222 229 231 193 219 237 252 213 194 212 219 213 211 211 215 210 201 199 194 187 186 183 167 160 341 357 349 343 351 344 339 343 346 347 342 336 336 331 322 321 319 307 303 292 286 278 275 267
225 233 250 262 227 244 257 264 254 222 222 225 219 215 215 215 202 189 189 184 184 183 184 176 199 81 357 354 345 343 347 340 343 346 347 336 333 332 330 326 329 323 319 314 308 299 286 280 276
226 240 255 268 265 257 275 273 265 238 230 230 227 218 213 207 197 186 187 185 190 185 184 185 178 133 21 11 350 343 339 332 339 330 337 339 337 333 328 331 327 327 320 314 317 312 306 291 275
228 240 260 277 273 236 283 275 255 224 223 226 228 226 215 206 202 190 189 189 189 188 186 183 180 169 146 8 341 328 325 306 328 346 344 342 339 335 332 330 326 325 322 328 322 315 310 306 292
235 245 256 260 262 270 274 295 283 233 233 221 215 211 207 199 199 190 189 190 191 187 182 185 183 189 180 249 318 335 331 342 347 339 338 333 340 342 336 330 328 327 329 328 319 332 312 297 296
234 164 229 243 260 277 256 275 281 218 243 219 208 206 203 195 192 190 190 189 187 180 179 186 187 194 202 251 286 297 317 333 334 331 335 336 347 344 343 339 335 333 328 327 327 318 306 293 289
157 164 177 220 252 266 270 265 281 242 240 211 196 202 201 193 188 188 185 184 181 177 178 184 193 199 207 236 258 282 308 317 325 331 340 338 342 342 350 339 333 333 332 328 324 315 302 295 290
199 224 240 235 237 265 177 257 266 287 275 264 243 203 197 191 188 185 184 185 184 183 186 190 197 207 213 230 250 269 288 303 311 323 337 334 341 346 349 340 333 335 332 325 318 309 310 294 286
205 232 256 280 284 296 230 253 269 256 263 260 245 215 191 189 190 189 189 188 187 188 190 195 203 212 215 230 247 261 276 291 309 310 318 325 333 340 339 336 331 333 329 317 315 307 307 296 284
191 221 273 285 288 285 271 267 279 221 229 216 204 193 192 190 190 191 190 190 189 191 193 198 205 213 217 228 239 252 271 287 297 292 295 312 320 327 331 328 325 330 329 322 315 311 310 297 286
283 186 201 250 281 283 283 276 279 258 227 206 203 200 194 189 190 192 192 192 192 193 193 196 207 215 216 224 234 246 264 277 283 285 294 304 311 320 317 325 329 331 328 322 316 307 316 300 292
182 201 229 249 267 280 289 291 332 287 276 234 216 208 199 194 194 193 192 192 191 190 192 196 204 211 215 222 229 236 248 261 266 267 276 281 289 297 304 314 321 327 327 324 313 306 307 297 293
241 239 230 252 257 253 276 284 196 257 267 250 232 215 206 202 197 193 190 187 188 192 195 199 203 207 211 218 225 235 247 250 257 260 263 269 275 284 291 299 304 316 318 315 310 306 303 301 300
Height
1524 1524 1525 1526 1525 1522 1521 1518 1515 1516 1515 1518 1518 1518 1517 1519 1521 1528 1529 1527 1528 1529 1529 1530 1531 1531 1532 1532 1533 1533 1534 1534 1534 1534 1535 1535 1535 1535 1535 1535 1535 1535 1535 1535 1534 1534 1534 1533 1533
1524 1524 1526 1525 1522 1523 1522 1516 1517 1517 1519 1520 1520 1520 1520 1523 1525 1527 1528 1528 1528 1529 1530 1530 1531 1531 1531 1532 1532 1532 1532 1533 1533 1533 1533 1534 1534 1534 1534 1534 1534 1534 1534 1534 1534 1534 1533 1533 1533
1523 1524 1526 1522 1519 1520 1520 1516 1517 1519 1520 1521 1521 1522 1523 1526 1528 1528 1529 1529 1529 1530 1530 1530 1530 1531 1531 1531 1531 1531 1531 1531 1531 1531 1531 1531 1532 1532 1532 1532 1532 1532 1532 1533 1533 1533 1533 1532 1532
1524 1525 1525 1521 1518 1515 1515 1516 1517 1519 1521 1521 1521 1523 1526 1528 1529 1530 1529 1530 1531 1531 1531 1531 1531 1531 1530 1530 1530 1530 1529 1529 1529 1529 1529 1529 1529 1530 1530 1530 1530 1530 1531 1531 1531 1532 1532 1532 1532
1524 1523 1520 1519 1516 1514 1515 1517 1518 1518 1519 1521 1522 1523 1527 1529 1529 1530 1530 1531 1532 1532 1532 1531 1531 1530 1530 1529 1529 1528 1528 1527 1527 1527 1527 1527 1527 1527 1527 1527 1528 1528 1528 1529 1530 1530 1531 1531 1531
1523 1520 1520 1519 1516 1514 1515 1517 1518 1518 1520 1522 1523 1524 1528 1530 1530 1531 1531 1532 1532 1532 1532 1532 1531 1530 1529 1529 1528 1527 1526 1526 1525 1524 1524 1524 1524 1524 1524 1524 1525 1525 1526 1526 1527 1528 1529 1529 1529
1522 1517 1517 1515 1516 1515 1515 1517 1517 1518 1519 1522 1523 1524 1528 1530 1530 1531 1532 1532 1532 1532 1532 1532 1532 1531 1529 1528 1527 1526 1525 1524 1523 1522 1522 1521 1521 1521 1521 1521 1522 1522 1523 1524 1525 1525 1526 1527 1527
1520 1517 1515 1514 1516 1516 1515 1517 1518 1518 1520 1523 1524 1523 1527 1530 1530 1531 1532 1532 1533 1533 1532 1532 1531 1530 1529 1528 1525 1524 1523 1522 1521 1520 1519 1519 1519 1518 1518 1518 1518 1519 1520 1521 1521 1522 1523 1524 1525
1519 1518 1516 1513 1514 1513 1515 1516 1518 1520 1521 1523 1524 1525 1527 1529 1530 1531 1532 1533 1533 1533 1532 1532 1531 1529 1528 1527 1525 1523 1522 1521 1520 1519 1518 1517 1518 1517 1517 1516 1516 1516 1516 1517 1518 1519 1520 1521 1522
1518 1516 1513 1511 1511 1512 1515 1516 1517 1519 1520 1522 1524 1525 1527 1528 1530 1531 1532 1533 1533 1533 1532 1532 1530 1529 1527 1526 1524 1522 1522 1520 1519 1518 1517 1516 1516 1515 1515 1513 1513 1513 1513 1514 1515 1516 1517 1519 1520
1513 1512 1511 1512 1513 1514 1515 1516 1517 1517 1517 1519 1522 1524 1526 1528 1530 1531 1532 1533 1533 1533 1532 1531 1530 1529 1527 1526 1524 1522 1520 1519 1518 1517 1516 1515 1515 1514 1514 1513 1512 1511 1511 1512 1512 1513 1514 1516 1517
1511 1511 1512 1512 1514 1514 1514 1515 1516 1516 1517 1519 1521 1523 1525 1527 1529 1530 1531 1532 1532 1532 1531 1531 1529 1528 1527 1525 1523 1522 1520 1519 1518 1516 1515 1515 1514 1513 1512 1511 1510 1510 1509 1509 1509 1510 1511 1512 1514
1510 1510 1512 1513 1513 1514 1514 1515 1515 1515 1517 1519 1520 1522 1524 1526 1528 1529 1530 1531 1531 1531 1530 1530 1528 1527 1526 1524 1522 1521 1520 1518 1517 1515 1514 1513 1512 1512 1511 1510 1508 1508 1508 1507 1507 1508 1509 1510 1511
1508 1510 1511 1511 1512 1513 1513 1513 1514 1513 1516 1518 1519 1521 1523 1525 1527 1528 1529 1529 1530 1530 1530 1529 1528 1526 1525 1524 1522 1521 1519 1517 1516 1515 1514 1512 1511 1510 1509 1508 1507 1507 1506 1506 1505 1506 1506 1507 1508
1509 1509 1509 1509 1510 1511 1512 1510 1509 1511 1514 1516 1518 1520 1522 1524 1525 1526 1527 1528 1529 1529 1528 1527 1526 1525 1524 1522 1521 1519 1518 1517 1515 1514 1513 1511 1510 1509 1507 1506 1506 1505 1504 1504 1504 1504 1504 1504 1505
1507 1507 1509 1506 1508 1510 1513 1510 1506 1509 1512 1513 1516 1518 1520 1522 1523 1524 1525 1526 1527 1527 1527 1526 1525 1524 1523 1521 1519 1519 1517 1516 1514 1513 1511 1510 1509 1507 1506 1504 1504 1503 1502 1502 1502 1502 1502 1503 1503
1506 1508 1507 1506 1506 1507 1508 1506 1505 1508 1510 1511 1513 1515 1517 1519 1521 1522 1523 1524 1525 1525 1526 1525 1524 1523 1522 1520 1518 1517 1516 1514 1514 1512 1511 1509 1507 1506 1505 1503 1502 1501 1501 1500 1500 1500 1500 1500 1501
1507 1505 1505 1504 1504 1506 1506 1502 1502 1506 1507 1508 1510 1512 1514 1516 1518 1520 1521 1522 1523 1523 1524 1523 1523 1522 1521 1519 1518 1517 1515 1514 1513 1511 1509 1507 1506 1504 1503 1502 1501 1500 1499 1498 1498 1498 1498 1498 1498
1499 1503 1503 1501 1502 1505 1502 1499 1497 1501 1504 1505 1506 1508 1510 1513 1516 1517 1518 1519 1521 1522 1522 1522 1522 1521 1520 1519 1518 1517 1516 1514 1512 1510 1508 1506 1505 1503 1502 1501 1500 1498 1498 1497 1497 1497 1497 1497 1497
1502 1504 1503 1501 1503 1503 1500 1497 1493 1496 1498 1500 1501 1503 1506 1510 1513 1514 1516 1517 1519 1520 1521 1521 1521 1520 1519 1517 1517 1515 1514 1513 1511 1509 1508 1506 1504 1502 1501 1500 1499 1498 1496 1496 1496 1495 1495 1495 1496
1502 1504 1503 1504 1503 1502 1502 1495 1489 1491 1495 1497 1499 1501 1503 1507 1509 1512 1514 1515 1517 1518 1519 1519 1519 1519 1518 1517 1516 1515 1514 1513 1512 1510 1507 1505 1503 1502 1500 1499 1498 1497 1496 1495 1495 1494 1494 1494 1495
1503 1500 1503 1504 1505 1500 1503 1503 1489 1488 1491 1493 1495 1498 1500 1504 1507 1509 1511 1513 1515 1516 1517 1518 1518 1518 1517 1516 1516 1515 1514 1513 1511 1509 1507 1505 1503 1501 1500 1499 1497 1497 1496 1495 1494 1494 1493 1493 1494
1499 1502 1502 1503 1502 1501 1498 1502 1489 1487 1487 1487 1490 1494 1497 1501 1504 1507 1509 1511 1513 1514 1515 1516 1516 1516 1516 1515 1514 1514 1514 1512 1511 1509 1507 1505 1503 1501 1499 1498 1497 1496 1495 1495 1494 1493 1493 1493 1493
1502 1503 1503 1502 1500 1507 1498 1501 1494 1483 1484 1484 1487 1491 1495 1498 1501 1504 1507 1509 1511 1512 1513 1514 1515 1515 1514 1514 1514 1513 1512 1511 1510 1509 1507 1505 1504 1501 1500 1497 1496 1495 1495 1494 1493 1492 1492 1492 1491
1501 1502 1508 1508 1507 1503 1498 1501 1491 1481 1483 1485 1487 1489 1492 1496 1499 1502 1504 1506 1508 1510 1511 1512 1513 1513 1513 1513 1513 1512 1511 1510 1509 1508 1507 1505 1504 1502 1500 1498 1496 1495 1494 1493 1492 1491 1491 1491 1490
1496 1497 1507 1514 1510 1499 1497 1497 1483 1481 1484 1486 1487 1488 1491 1494 1496 1499 1502 1504 1506 1507 1509 1510 1511 1512 1512 1512 1512 1511 1510 1510 1509 1507 1506 1505 1503 1501 1499 1497 1496 1494 1493 1492 1491 1491 1490 1490 1490
1495 1494 1492 1498 1500 1504 1492 1487 1479 1479 1481 1484 1485 1487 1489 1491 1494 1497 1499 1501 1503 1505 1507 1508 1509 1510 1510 1511 1510 1510 1510 1508 1507 1506 1505 1504 1502 1500 1499 1497 1496 1494 1493 1491 1491 1490 1490 1489 1489
1493 1492 1497 1500 1508 1508 1498 1491 1484 1477 1478 1480 1483 1485 1487 1489 1492 1494 1496 1499 1501 1503 1505 1506 1507 1508 1509 1509 1509 1509 1508 1507 1506 1505 1504 1503 1502 1500 1498 1497 1496 1494 1493 1491 1490 1489 1488 1488 1487
1496 1496 1494 1494 1498 1506 1505 1492 1475 1476 1477 1478 1480 1483 1485 1487 1489 1492 1494 1496 1498 1500 1502 1504 1505 1506 1507 1507 1507 1507 1507 1506 1505 1504 1503 1501 1500 1499 1498 1497 1496 1494 1493 1491 1490 1489 1488 1487 1486
1489 1489 1491 1498 1497 1497 1499 1490 1472 1475 1477 1478 1478 1481 1483 1485 1487 1489 1491 1493 1495 1498 1500 1501 1503 1504 1505 1505 1506 1505 1505 1504 1504 1503 1502 1501 1500 1499 1497 1496 1495 1494 1492 1491 1489 1488 1487 1486 1485